Location: *
(50.3194°N, 7.1067°E)
Time: 21:15:19
(UTC+00:00)

SL-14 R/B - Pass Details

Date: 22 September 2019
Orbit: 517 x 556 km, 82.4° (Epoch: 14 October)

Event Time Altitude Azimuth Distance (km) Brightness Sun altitude
Rises 19:43:15 0° 352° (N) 2,719 7.4 -21.2°
Reaches altitude 10° 19:45:27 10° 355° (N) 1,815 6.4 -21.5°
Enters shadow 19:48:59 58° 41° (NE) 630 3.4 -22.0°
